Powrót do katalogu

STARLINK-30171

AktywnyŁącznośćVLEO
NORAD 57469·PAYLOAD·🇺🇸 United States

Wystrzelony Jul 28, 2023 z Cape Canaveral Space Force Station

Loading…

Następne Przeloty (najbliższe 24 godziny)

TLE

ŚwieżeSource: CelesTrak SupGP

Epoka: Sep 14, 2026, 21:32 UTC

1 57469C 23107N   26257.89770833 -.00066884  00000+0 -24218-2 0  2570
2 57469  43.0026 350.9062 0001372 265.6806 134.5356 15.27621509    15

Śledź STARLINK-30171 w czasie rzeczywistym z AllMySat

Download on the App Store